EHI
0 0 0 0 0 0 0 0 0 0 0 0 0 0 0 0 0 0 0 0 0 0 0 0 0 0 0 0 0 0 0 0 0 0 0 0 0 0 0 0 0 0 0 0
0 0 0 0 0 0 0 0 0 0 0 0 0 0 0 0 0 0 0 0 0 0 0 0 0 0 0 0 0 0 0 0 0 0 0 0 0 0 0 0 0 0 0 0
0 0 0 0 0 0 0 0 0 0 0 0 0 0 0 0 0 0 0 0 0 0 0 0 0 0 0 0 0 0 0 0 0 0 0 0 0 0 0 0 0 0 0 0
0 0 0 0 0 0 0 0 0 0 0 0 0 0 0 0 0 0 0 0 0 0 0 0 0 0 0 0 0 0 0 0 0 0 0 0 0 0 0 0 0 0 0 0
0 0 0 0 0 0 0 0 0 0 0 0 0 0 0 0 0 0 0 0 0 0 0 0 0 0 0 0 0 0 0 0 0 0 0 0 0 0 0 0 0 0 0 0
0 0 0 0 0 0 0 0 0 0 0 0 0 0 0 0 0 0 0 0 0 0 0 0 0 0 0 0 0 0 0 0 0 0 0 0 0 0 0 0 0 0 0 0
0 0 0 0 0 0 0 0 0 0 0 0 0 0 0 0 0 0 0 0 0 0 0 0 0 0 0 0 0 0 0 0 0 0 0 0 0 0 0 0 0 0 0 0
0 0 0 0 0 0 0 0 0 0 0 0 0 0 0 0 0 0 0 0 0 0 0 0 0 0 0 0 0 0 0 0 0 0 0 0 0 0 0 0 0 0 0 0
0 0 0 0 0 0 0 0 0 0 0 0 0 0 0 0 0 0 0 0 0 0 0 0 0 0 0 0 0 0 0 0 0 0 0 0 0 0 0 0 0 0 0 0
0 0 0 0 0 0 0 0 0 0 0 0 0 0 0 0 0 0 0 0 0 0 0 0 0 0 0 0 0 0 0 0 0 0 0 0 0 0 0 0 0 0 0 0
0 0 0 0 0 0 0 0 0 0 0 0 0 0 0 0 0 0 0 0 0 0 0 0 0 0 0 0 0 0 0 0 0 0 0 0 0 0 0 0 0 0 0 0
0 0 0 0 0 0 0 0 0 0 0 0 0 0 0 0 0 0 0 0 0 0 0 0 0 0 0 0 0 0 0 0 0 0 0 0 0 0 0 0 0 0 0 0
0 0 0 0 0 0 0 0 0 0 0 0 0 0 0 0 0 0 0 0 0 0 0 0 0 0 0 0 0 0 0 0 0 0 0 0 0 0 0 0 0 0 0 0
0 0 0 0 0 0 0 0 0 0 0 0 0 0 0 0 0 0 0 0 0 0 0 0 0 0 0 0 0 0 0 0 0 0 0 0 0 0 0 0 0 0 0 0
0 0 0 0 0 0 0 0 0 0 0 0 0 0 0 0 0 0 0 0 0 0 0 0 0 0 0 0 0 0 0 0 0 0 0 0 0 0 0 0 0 0 0 0
0 0 0 0 0 0 0 0 0 0 0 0 0 0 0 0 0 0 0 0 0 0 0 0 0 0 0 0 0 0 0 0 0 0 0 0 0 0 0 0 0 0 0 0
0 0 0 0 0 0 0 0 0 0 0 0 0 0 0 0 0 0 0 0 0 0 0 0 0 0 0 0 0 0 0 0 0 0 0 0 0 0 0 0 0 0 0 0
0 0 0 0 0 0 0 0 0 0 0 0 0 0 0 0 0 0 0 0 0 0 0 0 0 0 0 0 0 0 0 0 0 0 0 0 0 0 0 0 0 0 0 0
0 0 0 0 0 0 0 0 0 0 0 0 0 0 0 0 0 0 0 0 0 0 0 0 0 0 0 0 0 0 0 0 0 0 0 0 0 0 0 0 0 0 0 0
0 0 0 0 0 0 0 0 0 0 0 0 0 0 0 0 0 0 0 0 0 0 0 0 0 0 0 0 0 0 0 0 0 0 0 0 0 0 0 0 0 0 0 0
0 0 0 0 0 0 0 0 0 0 0 0 0 0 0 0 0 0 0 0 0 0 0 0 0 0 0 0 0 0 0 0 0 0 0 0 0 0 0 0 0 0 0 0
0 0 0 0 0 0 0 0 0 0 0 0 0 0 0 0 0 0 0 0 0 0 0 0 0 0 0 0 0 0 0 0 0 0 0 0 0 0 0 0 0 0 0 0
0 0 0 0 0 0 0 0 0 0 0 0 0 0 0 0 0 0 0 0 0 0 0 0 0 0 0 0 0 0 0 0 0 0 0 0 0 0 0 0 0 0 0 0
0 0 0 0 0 0 0 0 0 0 0 0 0 0 0 0 0 0 0 0 0 0 0 0 0 0 0 0 0 0 0 0 0 0 0 0 0 0 0 0 0 0 0 0
0 0 0 0 0 0 0 0 0 0 0 0 0 0 0 0 0 0 0 0 0 0 0 0 0 0 0 0 0 0 0 0 0 0 0 0 0 0 0 0 0 0 0 0
0 0 0 0 0 0 0 0 0 0 0 0 0 0 0 0 0 0 0 0 0 0 0 0 0 0 0 0 0 0 0 0 0 0 0 0 0 0 0 0 0 0 0 0
0 0 0 0 0 0 0 0 0 0 0 0 0 0 0 0 0 0 0 0 0 0 0 0 0 0 0 0 0 0 0 0 0 0 0 0 0 0 0 0 0 0 0 0
Wind_Speed
8 7 6 7 7 8 9 8 6 5 5 5 3 1 1 1 1 1 1 1 1 1 1 1 1 1 1 1 2 2 3 3 3 2 2 2 2 1 1 1 1 1 1 1
8 7 7 9 8 9 10 9 9 8 8 3 1 1 1 1 0 1 1 1 0 1 1 1 1 1 1 1 1 2 2 2 2 2 2 2 1 1 1 1 1 1 2 2
5 3 3 7 7 8 6 5 6 8 6 1 1 1 1 1 0 0 0 0 0 0 0 1 1 1 1 1 1 2 2 2 2 2 2 2 1 1 1 1 1 1 1 1
3 2 7 4 1 2 3 3 1 0 1 2 1 2 1 1 1 1 1 0 0 0 0 0 1 1 2 2 1 1 2 2 2 2 1 1 1 1 1 1 1 1 1 1
3 4 6 1 2 1 2 3 1 1 2 3 3 2 2 3 2 0 1 1 1 1 1 1 1 1 2 2 1 1 1 1 1 2 1 1 1 1 1 1 1 1 1 1
3 3 4 1 3 4 1 1 3 2 2 2 2 1 2 3 3 3 2 2 2 2 2 2 1 2 2 1 1 1 1 1 1 1 1 1 2 1 1 1 1 1 1 2
5 4 3 2 3 3 2 2 3 2 1 1 0 1 2 2 3 3 2 2 2 2 2 1 1 1 1 1 1 1 1 1 0 0 1 1 1 1 1 1 1 1 2 2
3 3 4 3 2 1 0 2 3 2 2 2 2 2 3 3 3 3 3 3 2 2 2 2 2 1 0 0 0 1 1 0 0 1 1 0 1 1 1 2 2 2 2 2
2 2 2 1 2 2 3 3 3 3 3 2 2 3 3 3 3 3 3 2 2 1 1 1 1 1 0 0 1 1 0 0 1 1 1 1 1 1 1 2 2 2 2 2
2 3 3 2 3 3 4 3 3 3 3 3 2 2 3 2 2 2 2 2 2 2 1 1 1 1 1 0 0 0 0 1 1 1 1 1 1 1 1 2 2 2 2 2
3 3 3 3 4 3 3 3 3 3 3 2 2 2 2 2 2 2 2 2 2 1 1 1 1 1 1 1 1 0 1 1 1 1 1 1 1 2 2 3 3 3 3 3
4 3 3 4 4 4 3 3 3 3 3 3 2 2 2 2 2 2 2 2 2 2 1 1 1 1 1 1 1 1 1 1 1 1 1 1 1 2 3 3 4 5 5 4
3 4 3 4 5 5 4 4 3 3 2 3 2 2 1 1 1 2 2 2 2 2 2 2 1 2 2 1 1 1 1 1 1 1 2 2 2 2 2 3 4 5 5 5
4 3 3 4 5 5 4 4 3 3 3 2 2 2 2 1 2 2 2 2 2 2 2 2 2 2 2 2 1 1 1 2 2 2 2 2 2 2 2 2 3 2 3 5
5 4 3 4 4 5 4 4 3 3 3 3 2 2 2 2 2 2 2 2 2 2 2 2 2 3 3 2 1 2 2 1 1 1 1 1 1 2 2 2 2 2 2 3
5 4 4 4 4 4 5 4 4 4 3 3 3 3 2 2 2 2 2 2 2 2 3 2 2 3 2 2 2 2 2 3 2 1 1 1 1 2 2 2 2 2 3 3
4 4 5 5 5 5 4 4 4 4 3 3 3 3 2 2 2 2 2 2 2 3 3 2 3 3 2 2 2 2 2 2 3 2 2 2 2 2 2 2 3 3 3 3
3 3 3 3 4 4 5 5 4 4 4 3 3 3 2 2 3 3 3 3 3 3 3 3 3 3 2 2 2 1 2 2 2 2 2 2 2 2 2 3 3 3 3 3
5 4 4 5 4 4 4 4 4 4 4 3 3 3 3 3 3 3 3 3 3 4 4 3 4 3 3 3 3 2 2 2 2 2 2 4 3 2 2 3 3 3 3 3
6 5 5 5 5 4 4 4 4 4 4 3 3 3 4 4 3 3 3 3 3 3 3 3 3 3 3 3 4 2 2 2 3 3 2 2 3 3 3 3 3 3 3 3
6 6 6 5 5 4 4 4 4 4 4 4 3 3 4 4 4 3 3 4 4 3 3 4 3 3 3 3 4 2 2 3 3 3 3 3 3 3 3 3 3 3 3 3
6 5 5 5 5 5 4 4 3 4 4 4 3 3 3 4 4 4 4 3 4 5 4 2 2 4 5 6 3 3 3 3 3 3 3 3 3 3 3 3 3 3 3 3
5 5 5 5 5 5 5 4 4 3 3 4 4 3 3 4 3 3 4 3 3 6 4 3 5 7 8 4 3 3 3 3 3 3 3 3 3 3 3 4 3 3 3 3
5 5 5 5 4 4 5 4 4 3 3 4 4 4 3 3 3 3 3 6 7 7 4 5 8 8 8 3 3 3 3 3 3 3 3 3 3 3 3 3 3 3 3 4
5 5 4 4 4 4 4 4 4 3 3 3 3 3 3 3 3 4 3 4 6 7 4 6 8 8 5 3 3 3 3 3 4 3 3 3 3 3 3 3 3 3 3 3
5 4 4 4 4 4 3 3 3 3 4 4 4 3 3 3 3 3 3 4 5 6 5 3 4 5 3 3 3 4 3 4 4 3 3 3 3 3 3 3 4 3 3 3
5 4 3 4 4 3 3 3 4 4 4 4 5 4 4 4 4 4 4 4 4 4 3 3 3 3 3 3 4 4 3 3 3 3 3 3 3 3 3 4 3 3 3 3
Wind_Direction
273 274 269 258 239 225 226 228 229 246 252 259 257 218 132 114 107 135 123 107 113 127 130 105 83 66 63 109 126 141 143 144 145 137 130 130 130 127 126 142 160 154 154 180
276 265 260 265 252 238 235 238 245 265 278 281 291 67 86 109 172 169 152 113 137 130 118 120 115 100 64 76 108 134 138 140 134 133 130 128 131 127 132 154 168 157 175 190
264 264 292 261 239 222 220 225 219 240 254 323 357 332 231 248 56 87 135 165 188 152 142 124 137 133 136 112 107 114 125 128 131 130 133 142 147 147 162 174 163 171 182 184
259 249 238 238 63 168 200 239 210 257 347 19 346 313 309 52 72 356 351 335 184 108 83 72 99 112 114 108 110 122 124 125 129 134 143 153 164 184 197 183 179 201 207 209
231 242 261 267 21 16 195 268 5 284 343 4 8 5 9 32 38 22 359 17 52 69 58 77 89 100 104 102 110 118 130 138 144 140 151 181 205 211 206 194 207 220 212 215
225 235 246 321 352 330 102 277 12 359 323 329 21 330 303 357 13 24 29 44 53 40 38 59 59 93 117 138 144 158 150 129 118 131 173 222 231 227 212 193 208 219 229 222
233 236 262 342 338 18 116 274 342 357 353 43 75 253 300 344 7 26 39 46 53 49 38 54 61 83 127 147 169 145 113 110 127 181 215 225 244 249 203 194 202 224 233 240
229 226 255 348 37 78 320 9 19 23 40 58 49 21 22 17 18 27 33 32 39 45 31 32 52 71 117 191 92 78 90 141 200 233 248 236 219 251 225 197 206 226 227 243
225 230 312 37 31 17 36 26 16 21 29 47 37 13 13 13 16 17 18 16 23 39 33 29 45 71 257 242 109 115 143 235 244 246 236 216 211 221 221 210 217 226 222 237
299 305 344 9 17 27 27 15 4 9 19 26 18 4 3 6 9 10 9 5 8 22 23 3 14 37 340 327 82 107 266 287 273 250 264 262 244 222 223 224 228 234 234 240
281 304 345 1 358 358 355 1 9 6 6 9 8 348 347 350 355 8 10 2 6 2 342 323 340 354 354 359 21 328 282 278 274 258 249 264 268 249 242 237 233 239 238 233
276 313 317 320 343 352 353 351 352 354 356 357 353 333 341 340 348 3 8 2 357 350 348 346 350 340 342 357 358 305 291 289 281 270 265 260 273 298 291 273 276 268 263 260
314 341 339 330 345 359 357 350 349 342 328 324 343 346 338 335 346 1 7 1 349 339 338 342 339 329 326 325 310 282 280 291 292 281 269 263 264 267 292 301 285 275 268 268
357 4 347 346 348 358 360 356 360 357 351 348 356 359 356 355 351 355 344 333 336 338 337 333 327 323 323 321 301 282 279 280 284 280 276 270 262 261 261 272 286 291 279 270
1 1 348 346 358 3 359 360 4 357 354 353 357 353 350 340 324 319 322 330 335 334 326 324 324 320 325 327 312 289 284 279 272 274 274 271 271 269 268 266 268 279 291 285
351 359 359 355 353 353 358 356 351 341 341 341 341 332 321 314 311 317 325 329 322 308 307 309 308 311 317 316 308 298 287 284 288 281 277 278 278 273 271 268 267 270 273 277
356 349 344 341 343 342 342 338 330 325 328 329 325 322 328 331 326 319 315 314 299 290 295 297 296 306 309 305 293 291 295 292 292 294 278 270 264 261 261 263 264 266 268 269
345 330 327 323 322 324 325 327 324 322 317 313 320 326 325 316 304 303 307 314 312 305 300 295 297 302 300 301 290 277 278 281 280 277 275 271 269 262 260 264 267 270 277 276
349 341 334 329 323 317 313 315 318 316 315 315 315 306 298 295 296 300 303 303 300 299 298 296 307 308 302 297 299 277 270 273 277 277 275 274 278 271 266 266 269 270 272 274
343 338 334 331 331 327 321 321 322 319 316 314 307 306 306 305 305 299 294 282 272 274 284 298 301 292 288 287 295 276 263 263 267 270 271 266 266 268 267 266 269 270 269 269
335 334 333 332 328 328 324 320 318 315 316 317 307 300 299 302 303 298 294 293 292 295 297 303 302 295 293 299 300 288 277 271 270 269 270 269 269 270 269 268 270 271 272 273
329 329 328 327 325 324 324 324 320 316 318 319 317 309 305 304 302 295 278 274 287 303 309 298 296 299 302 305 294 283 279 275 274 271 268 268 268 269 270 269 269 273 274 272
326 326 327 327 323 319 323 324 319 313 308 307 305 301 296 295 296 296 298 296 300 307 311 299 304 306 307 306 288 280 277 276 275 272 269 268 267 267 267 269 269 271 273 275
327 328 325 322 323 323 319 317 315 311 304 301 298 296 296 300 300 292 286 302 312 313 309 305 310 309 311 304 288 282 278 276 273 271 271 269 265 265 267 269 273 275 274 275
326 324 324 327 327 319 315 320 325 323 318 314 314 313 308 297 293 301 307 307 311 316 312 309 311 312 312 298 292 285 281 277 278 278 270 272 270 270 273 274 275 276 275 274
326 324 321 323 321 318 320 323 324 324 325 325 325 324 322 318 314 311 311 309 308 311 310 303 304 308 303 296 292 289 285 287 290 284 275 274 273 275 276 275 277 278 277 275
328 330 331 332 333 334 332 326 320 318 320 316 314 314 316 317 315 315 314 312 312 310 307 306 304 300 298 296 294 291 288 284 280 277 275 273 271 269 270 271 273 277 278 277